Weather History for KFLL - May, 2012

Change the Weather History Date:

Sunday, May 27, 2012

  Actual Average Record
Temperature  
Mean Temperature 80 °F 82 °F  
Max Temperature 88 °F 88 °F 94 °F (1924)
Min Temperature 71 °F 76 °F 62 °F (1927)
Degree Days  
Heating Degree Days 0 0  
Month to date heating degree days 0 0  
Since 1 July heating degree days 65 112  
Cooling Degree Days 15 17  
Month to date cooling degree days 379 403  
Year to date cooling degree days 1439 1350  
Growing Degree Days 30 (Base 50)    
Moisture  
Dew Point 71 °F    
Average Humidity 72    
Maximum Humidity 94    
Minimum Humidity 50    
Precipitation  
Precipitation 0.15 in 0.22 in 10.22 in (2003)
Month to date precipitation 7.41 3.75  
Year to date precipitation 15.92 16.59  
Snow  
Snow 0.00 in - - ()
Month to date snowfall 0.0  
Since 1 July snowfall 0.0  
Snow Depth 0.00 in    
Sea Level Pressure  
Sea Level Pressure 29.93 in    
Wind  
Wind Speed 6 mph (SSW)    
Max Wind Speed 30 mph    
Max Gust Speed 39 mph    
Visibility 9 miles    
Events Rain , Thunderstorm    
T = Trace of Precipitation, MM = Missing Value Source: NWS Daily Summary

Daily Weather History Graph

Daily Weather History Graph

Search for Another Location

Airport or City:

Trip Planner

Search our weather history database for the weather conditions in past years. The results will help you decide how hot, cold, wet, or windy it might be!

Date:

Astronomy

May. 27, 2012 Rise Set
Actual Time 6:29 AM EDT 8:06 PM EDT
Civil Twilight 6:03 AM EDT 8:31 PM EDT
Nautical Twilight 5:33 AM EDT 9:02 PM EDT
Astronomical Twilight 5:01 AM EDT 9:34 PM EDT
Moon 12:12 PM EDT (5/27) 12:29 AM EDT (5/27)
Length of Visible Light 14h 28m
Length of Day
13h 36m
Waxing Crescent, 38% of the Moon is Illuminated
May 27
Waxing Crescent
May 28
First Quarter
Jun 4
Full
Jun 11
Last Quarter
Jun 19
New

Hourly Weather History & Observations

Time (EDT) Temp. Heat Index Dew Point Humidity Pressure Visibility Wind Dir Wind Speed Gust Speed Precip Events Conditions
12:53 AM 77.0 °F - 73.0 °F 88% 29.97 in 10.0 mi Calm Calm - N/A   Partly Cloudy
1:53 AM 78.1 °F - 73.0 °F 84% 29.95 in 10.0 mi WNW 3.5 mph - N/A   Partly Cloudy
2:53 AM 77.0 °F - 73.0 °F 88% 29.93 in 10.0 mi Calm Calm - N/A   Partly Cloudy
3:53 AM 75.0 °F - 72.0 °F 90% 29.92 in 10.0 mi Calm Calm - N/A   Clear
4:53 AM 75.0 °F - 72.0 °F 90% 29.91 in 10.0 mi SW 4.6 mph - N/A   Clear
5:53 AM 75.0 °F - 72.0 °F 90% 29.92 in 10.0 mi Calm Calm - N/A   Clear
6:53 AM 75.0 °F - 73.0 °F 94% 29.94 in 10.0 mi Calm Calm - N/A   Partly Cloudy
7:53 AM 78.1 °F - 73.9 °F 87% 29.95 in 10.0 mi West 3.5 mph - N/A   Partly Cloudy
8:53 AM 81.0 °F 85.2 °F 72.0 °F 74% 29.96 in 10.0 mi Variable 3.5 mph - N/A   Partly Cloudy
9:53 AM 82.9 °F 86.5 °F 69.1 °F 63% 29.96 in 10.0 mi Variable 5.8 mph - N/A   Partly Cloudy
10:53 AM 84.9 °F 88.8 °F 69.1 °F 59% 29.96 in 10.0 mi WSW 4.6 mph - N/A   Partly Cloudy
11:53 AM 87.1 °F 89.2 °F 66.0 °F 49% 29.95 in 10.0 mi Calm Calm - N/A   Partly Cloudy
12:53 PM 88.0 °F 95.6 °F 73.0 °F 61% 29.94 in 10.0 mi ESE 13.8 mph - N/A   Scattered Clouds
1:53 PM 86.0 °F 93.8 °F 73.9 °F 67% 29.93 in 10.0 mi SSE 10.4 mph - N/A   Mostly Cloudy
2:53 PM 86.0 °F 93.0 °F 73.0 °F 65% 29.91 in 10.0 mi SSE 12.7 mph - N/A   Scattered Clouds
3:53 PM 87.1 °F 94.5 °F 73.0 °F 63% 29.89 in 10.0 mi SE 16.1 mph 24.2 mph N/A   Partly Cloudy
4:44 PM 84.2 °F 89.6 °F 71.6 °F 66% 29.86 in 10.0 mi SSE 17.3 mph 24.2 mph N/A Thunderstorm Thunderstorm
4:53 PM 84.0 °F 89.6 °F 72.0 °F 67% 29.86 in 10.0 mi South 15.0 mph 27.6 mph N/A Thunderstorm Thunderstorm
5:10 PM 82.4 °F 87.2 °F 71.6 °F 70% 29.94 in 5.0 mi West 29.9 mph 39.1 mph 0.00 in Rain , Thunderstorm Light Thunderstorms and Rain
5:14 PM 75.2 °F - 69.8 °F 83% 29.94 in 2.0 mi WNW 23.0 mph 39.1 mph 0.03 in Rain , Thunderstorm Light Thunderstorms and Rain
5:16 PM 73.4 °F - 69.8 °F 88% 29.94 in 0.8 mi NW 23.0 mph 39.1 mph 0.10 in Rain , Thunderstorm Heavy Thunderstorms and Rain
5:21 PM 71.6 °F - 69.8 °F 94% 29.93 in 2.0 mi NNW 21.9 mph 35.7 mph 0.12 in Rain , Thunderstorm Thunderstorms and Rain
5:24 PM 71.6 °F - 69.8 °F 94% 29.93 in 5.0 mi NNW 15.0 mph 31.1 mph 0.12 in Rain , Thunderstorm Thunderstorms and Rain
5:53 PM 72.0 °F - 69.1 °F 91% 29.93 in 10.0 mi NNE 6.9 mph - 0.15 in Rain Light Rain
6:53 PM 73.9 °F - 71.1 °F 91% 29.91 in 10.0 mi SE 5.8 mph - 0.00 in   Mostly Cloudy
7:53 PM 78.1 °F - 70.0 °F 76% 29.91 in 10.0 mi SSE 3.5 mph - N/A   Mostly Cloudy
8:53 PM 78.1 °F - 71.1 °F 79% 29.93 in 10.0 mi South 6.9 mph - N/A   Mostly Cloudy
9:53 PM 79.0 °F - 72.0 °F 79% 29.94 in 10.0 mi South 4.6 mph - N/A   Mostly Cloudy
10:53 PM 79.0 °F - 73.0 °F 82% 29.95 in 10.0 mi South 5.8 mph - N/A   Scattered Clouds
11:53 PM 79.0 °F - 72.0 °F 79% 29.95 in 10.0 mi SSW 3.5 mph - N/A   Mostly Cloudy